[Iaude] MPEC T60: 2023 TP1 [a=1.54,e=0.38,i=21.4,H=24.7]

mpec at marsden.cfa.harvard.edu mpec at marsden.cfa.harvard.edu
Fri Oct 6 20:57:20 EDT 2023


M.P.E.C. 2023-T60                               Issued 2023 October 7, 00:55 UT

     The Minor Planet Electronic Circulars contain information on unusual
         minor planets, routine data on comets and natural satellites,
         and occasional editorial announcements.  They are published
    on behalf of Division F of the International Astronomical Union by the
          Minor Planet Center, Smithsonian Astrophysical Observatory,
                          Cambridge, MA 02138, U.S.A.
			  
             Prepared using the Tamkin Foundation Computer Network

                              MPC at CFA.HARVARD.EDU
            URL https://www.minorplanetcenter.net/    ISSN 1523-6714

                                    2023 TP1                                    


Observations:
     K23T01P*KC2023 10 05.70045 22 26 44.29 +24 50 17.3          19.6 GXET060L51
     K23T01P KC2023 10 05.70185 22 26 44.62 +24 49 57.9          19.3 GXET060L51
     K23T01P KC2023 10 05.70320 22 26 44.86 +24 49 38.8          19.5 GXET060L51
     K23T01P KC2023 10 05.73850 22 26 53.38 +24 41 23.9          19.6 GXET060L51
     K23T01P KC2023 10 05.74057 22 26 53.90 +24 40 55.0          19.5 GXET060L51
     K23T01P KC2023 10 05.74263 22 26 54.41 +24 40 25.8          19.4 GXET060L51
     K23T01P KC2023 10 05.79890422 27 11.99 +24 26 57.4          19.3 GXET060958
     K23T01P KC2023 10 05.80616522 27 13.81 +24 25 15.2          19.4 GXET060958
     K23T01P KC2023 10 05.81327422 27 15.60 +24 23 33.1                XET060958
     K23T01P KB2023 10 05.81888 22 27 17.081+24 22 21.43         19.8 VZET060J57
     K23T01P KB2023 10 05.82755 22 27 19.176+24 20 16.22         20.5 VZET060J57
     K23T01P KB2023 10 05.83738222 27 21.18 +24 17 44.4          20.3 V ET060I93
     K23T01P KB2023 10 05.83830 22 27 21.698+24 17 41.53         20.2 VZET060J57
     K23T01P KB2023 10 05.85202922 27 24.68 +24 14 13.0          19.9 V ET060I93
     K23T01P KC2023 10 05.86929 22 27 27.29 +24 10 04.3                VET060104
     K23T01P KC2023 10 05.88282 22 27 30.54 +24 06 45.4          19.3 GVET060104
     K23T01P 7C2023 10 05.89694322 27 35.800+24 03 35.26         20.20GVET060Z84
     K23T01P 7C2023 10 05.89864122 27 36.200+24 03 10.41         20.20GVET060Z84
     K23T01P 7C2023 10 05.90034222 27 36.598+24 02 45.38         19.80GVET060Z84
     K23T01P KC2023 10 06.10188822 28 37.31 +23 12 11.2          20.5 VuET060H21
     K23T01P KC2023 10 06.10468422 28 37.99 +23 11 28.3          20.5 VuET060H21
     K23T01P KC2023 10 06.10748022 28 38.68 +23 10 45.7          20.6 VuET060H21
     K23T01P KC2023 10 06.10999822 28 39.29 +23 10 07.3          20.6 VuET060H21
     K23T01P KB2023 10 06.12442 22 28 44.00 +23 06 25.2          20.0 rZET060H36
     K23T01P KB2023 10 06.13194 22 28 45.83 +23 04 30.0          20.2 rZET060H36
     K23T01P KC2023 10 06.15482322 28 53.10 +22 58 44.8          20.0 GXET060858
     K23T01P KC2023 10 06.16056222 28 54.49 +22 57 16.0          19.9 GXET060858
     K23T01P KC2023 10 06.16636522 28 55.93 +22 55 46.2          19.8 GXET060858
     K23T01P KC2023 10 06.71405 22 31 50.61 +20 24 33.4          19.5 GXET060L51
     K23T01P KC2023 10 06.71703 22 31 51.46 +20 23 41.7          19.6 GXET060L51
     K23T01P KC2023 10 06.71884 22 31 51.96 +20 23 09.9          19.4 GXET060L51
     K23T01P KC2023 10 06.83236122 32 26.86 +19 49 40.2          20.1 GVET060L01
     K23T01P KC2023 10 06.83384422 32 27.29 +19 49 13.9          20.2 GVET060L01
     K23T01P KC2023 10 06.83532522 32 27.71 +19 48 47.3          19.9 GVET060L01
     K23T01P KC2023 10 06.83693022 32 28.16 +19 48 18.5          19.9 GVET060L01
     K23T01P KC2023 10 06.87454922 32 39.401+19 37 03.42         19.9 GVET060K63
     K23T01P KC2023 10 06.88029522 32 41.046+19 35 18.54         19.8 GVET060K63
     K23T01P KC2023 10 06.88343622 32 41.938+19 34 20.56         19.9 GVET060K63
     K23T01P KC2023 10 06.94001422 32 58.64 +19 16 59.8                VET060204
     K23T01P KC2023 10 06.94900622 33 01.31 +19 14 13.3                VET060204
     K23T01P KC2023 10 06.95733922 33 03.78 +19 11 38.6          20.0 GVET060204

Observer details:
104 San Marcello Pistoiese.  Observers P. Bacci, M. Maestripieri.  Measurer P.
    Bacci.  0.60-m f/4.0 reflector + CCD.
204 Schiaparelli Observatory.  Observers L. Buzzi, G. Galli.  0.84-m f/3.5
    reflector + CCD.
858 Tebbutt Observatory, Edgewood.  Observer F. B. Zoltowski.  0.51-m f/8.1
    Schmidt-Cassegrain + CCD.
958 Observatoire de Dax.  Observers P. Dupouy, J. B. de Vanssay.  Measurer P.
    Dupouy.  0.43-m f/2.7 Reflector + CCD.
H21 Astronomical Research Observatory, Westfield.  Observer R. Holmes.
    Measurers T. Linder, R. Holmes, L. Horn.  0.76-m f/3.0 astrograph + CCD.
H36 Sandlot Observatory, Scranton.  Observer G. Hug.  0.56-m f/4.8 reflector +
    CMO.
I93 St Pardon de Conques.  Observer F. Losse.  0.40-m f/3.7 reflector + CMO.
J57 Centro Astronomico Alto Turia, Valencia.  Observer A. Fornas.  Measurers
    A. Fornas, G. Fornas, E. Arce, V. Mas.  0.43-m f/6.8 Reflector 0.4m + CMO.
K63 G. Pascoli Observatory, Castelvecchio Pascoli.  Observer R. Bacci.  0.41-m
    f/3.75 0.41m f/3.2  Newton + CCD.
L01 Visnjan Observatory, Tican.  Observer K. Korlevic.  1.0-m f/2.9 reflector
    + CCD.
L51 MARGO, Nauchnyi.  Observer G. Borisov.  0.50-m f/1.9 reflector + CCD.
Z84 Calar Alto-Schmidt.  Observers F. Ocana, M. Micheli, R. Kresken, L.
    Conversi.  Measurers F. Ocana, M. Micheli.  0.8-m f/3 Schmidt + CCD.

Orbital elements:
2023 TP1                                                 Earth MOID = 0.0290 AU
Epoch 2023 Sept. 13.0 TT = JDT 2460200.5                Veres                   
M 328.18172              (2000.0)            P               Q                  
n   0.51347338     Peri.  220.34906     +0.57584166     -0.81188141             
a   1.5445101      Node   195.31165     +0.81202611     +0.58163899             
e   0.3756636      Incl.   21.36503     +0.09497359     -0.05044458             
P   1.92           H   24.71          G   0.15           U   9                  
Residuals in seconds of arc
231005 L51  0.1-  0.1+    231005 104  1.1-  0.3+    231006 L51  0.4+  1.0-
231005 L51  0.2-  0.2+    231005 104  0.7-  0.5-    231006 L51  0.4+  0.9-
231005 L51  1.4-  0.1-    231005 Z84  0.2+  0.2-    231006 L51  0.2+  1.2-
231005 L51  0.1-  0.2+    231005 Z84  0.3+  0.1-    231006 L01  0.3-  0.2-
231005 L51  0.3+  0.5+    231005 Z84  0.3+  0.1-    231006 L01  0.2-  0.1+
231005 L51  0.6+  0.4+    231006 H21  0.2+  0.4+    231006 L01  0.3-  0.1+
231005 958  0.0   0.3+    231006 H21  0.0   0.2+    231006 L01  0.4-  0.1+
231005 958  0.7+  1.5+    231006 H21  0.1+  0.4+    231006 K63  0.2+  0.7+
231005 958  1.6+  1.0+    231006 H21  0.1-  0.5+    231006 K63  0.2+  0.2+
231005 J57  0.0   0.9+    231006 H36  0.5+  0.9-    231006 K63  0.1+  0.7-
231005 J57  0.4+  0.1-    231006 H36  0.1+  0.5-    231006 204  0.2+  0.2+
231005 I93  0.3+  0.0     231006 858  0.2+  0.4-    231006 204  0.5+  0.1+
231005 J57  0.2-  0.2-    231006 858  0.1-  0.4-    231006 204  0.4+  0.0
231005 I93  0.0   0.1+    231006 858  0.1+  0.3-

Ephemeris:
2023 TP1                 a,e,i = 1.54, 0.38, 21                  q = 0.9643
Date    TT    R. A. (2000) Decl.     Delta      r    Elong.  Phase     V
2023 09 07    22 00 38.8 +47 41 20   0.2760  1.1859   124.4    44.6    24.0
...
2023 09 22    22 00 03.3 +45 04 47   0.1605  1.1096   127.8    45.7    22.7
...
2023 09 30    22 08 59.8 +38 25 17   0.1010  1.0729   132.8    43.2    21.6
...
2023 10 06    22 28 05.0 +23 38 50   0.05990 1.0479   142.1    35.9    20.2
2023 10 07    22 33 22.1 +19 00 00   0.05390 1.0440   144.3    33.9    19.9
2023 10 08    22 39 37.1 +13 13 16   0.04838 1.0401   146.5    32.0    19.6
...
2023 10 14    23 57 58.6 -47 05 27   0.03792 1.0186   122.5    55.7    19.7
...
2023 10 22    05 40 36.1 -74 49 42   0.08174 0.9948    87.2    88.1    22.4
...
2023 11 06    08 24 16.4 -66 26 50   0.1854  0.9680    77.4    91.9    24.2

M. P. C. Staff               (C) Copyright 2023 MPC           M.P.E.C. 2023-T60





More information about the Iaude mailing list